パンスターズ彗星

C/2019 B3 ( PanSTARRS )

English version
Home page
Updated on September 11, 2022

---------------------------------------------------------------------

・ プロフィール

発見日 2019年1月24日
発見光度 19.6等
発見者 Pan-STARRS 1 telescope (Haleakala)

・ 写真集

・ 軌道要素

Epoch 2022 Aug. 9.0 TT = JDT 2459800.5
T 2021 Jan. 20.43926 TT                                 Rudenko
q   6.8242407            (2000.0)            P               Q
z  -0.0001206      Peri.  263.95345     -0.11609607     +0.99292289
 +/-0.0000011      Node   358.43724     +0.00232611     -0.02491504
e   1.0008229      Incl.   66.53509     -0.99323526     -0.11611791
From 178 observations 2019 Jan. 24-2022 Sept. 2, mean residual 0".5.

・ 光度変化

        m1 = 5.5 + 5 logΔ + 10.0 log r

---------------------------------------------------------------------

軌道要素はM.P.E.C. 2022-R68に掲載されたものです。
光度グラフはComet for Windowsで作成したものです。

---------------------------------------------------------------------

Copyright(C) Seiichi Yoshida (comet@aerith.net). All rights reserved.